Other Public Products
Issued by NWS Grand Forks, ND

Home | Current Version | Previous Version | Graphics & Text | Print | Product List | Glossary On
Versions: 1 2 3 4 5 6 7 8 9 10 11 12 13 14 15 16 17 18 19 20 21 22 23 24 25 26 27 28 29 30 31 32 33 34 35 36 37 38 39 40 41 42 43 44 45 46 47 48 49 50
944
FPUS83 KFGF 240810
OPUFGF
PRAIRIE TO PINES WEATHER ROUNDUP
NATIONAL WEATHER SERVICE EASTERN NORTH DAKOTA/GRAND FORKS ND
300 AM CDT SUN JUL 24 2016

 **SATELLITE DATA USED TO AUGMENT SKY COVER AT AUTOMATED STATIONS**
 *****  WEATHER ACROSS EASTERN NORTH DAKOTA  *****

CITY           SKY/WX    TMP DP  RH WIND       PRES   REMARKS
GRAND FORKS    CLEAR     65  60  84 W12       29.76R
GRAND FORKS AF CLEAR     65  60  84 W8        29.78R
GRAND CITY NWS   N/A     63 N/A N/A W10         N/A
BUXTON           N/A     65  64  98 W9          N/A
DEVILS LAKE    CLEAR     65  60  84 W14       29.84R
FARGO          CLEAR     67  62  84 W10       29.80R
WAHPETON ARPT  SUNNY     68  63  83 W9        29.83R
$$

 *****  WEATHER ACROSS CENTRAL AND WESTERN NORTH DAKOTA  *****

CITY           SKY/WX    TMP DP  RH WIND       PRES   REMARKS
JAMESTOWN      CLEAR     65  58  78 NW13      29.88R
BISMARCK       CLEAR     63  57  81 W6        29.95S
MINOT          CLEAR     67  58  72 W14       29.90R
MINOT AFB      CLEAR     62  58  87 W13       29.88R
GARRISON         N/A     62  58  86 NW10      29.94R
WILLISTON      CLEAR     62  53  72 W13       29.99S
DICKINSON      CLEAR     55  50  83 NW9       30.01S
HETTINGER      CLEAR     53  47  79 W3        30.08R
$$

 *****  OTHER OBSERVATIONS NORTHEAST NORTH DAKOTA  *****

CITY           SKY/WX    TMP DP  RH WIND       PRES   REMARKS
WALHALLA       NOT AVBL
LANGDON        FAIR      61  61 100 W13       29.80R
CAVALIER       FAIR      64  59  82 W8        29.74R
GRAFTON        FAIR      64  64 100 W12       29.77R
CANDO          NOT AVBL
FORT TOTTEN      N/A     64  59  83 NW6       29.95S
ROLLA            N/A     63  54  72 NW12      29.84R
RUGBY          NOT AVBL
 ***** THE ABOVE OBSERVATIONS ARE NON NWS ARE NOT QUALITY
        CONTROLLED AND MAY MIS-REPORT RAIN FOR SNOW...
$$

 *****  OTHER OBSERVATIONS SOUTHEAST NORTH DAKOTA *****

CITY           SKY/WX    TMP DP  RH WIND       PRES   REMARKS
COOPERSTOWN    NOT AVBL
VALLEY CITY      N/A     64  63  94 NW16G25   29.88R
OAKES            N/A    N/A N/A N/A MISG        N/A
GWINNER        FAIR      66  61  82 W9        29.87S
SHEYENNE NWR     N/A     66  60  81 NW7       29.95S
BUFFALO          N/A     63  58  84 W7          N/A
WYNDMERE       NOT AVBL
 ***** THE ABOVE OBSERVATIONS ARE NON NWS ARE NOT QUALITY
       CONTROLLED AND MAY MIS-REPORT RAIN FOR SNOW...
$$

  *****  WEATHER ACROSS NORTHERN MINNESOTA  *****

CITY           SKY/WX    TMP DP  RH WIND       PRES   REMARKS
FLAG ISLAND    CLEAR     68  66  94 W12       29.66S
WARROAD        CLEAR     66  63  88 SW8       29.70R
ROSEAU         CLEAR     68  63  83 W8        29.70R
HALLOCK        CLEAR     63  61  94 W7        29.73R
THF RVR FALLS  CLEAR     66  63  90 W9        29.76R
HALSTAD        NOT AVBL
FOSSTON        CLEAR     64  64 100 W7        29.77R
BAUDETTE       PTCLDY    69  67  93 SW7       29.70S
WASKISH        PTCLDY    72  70  94 W10       29.72S
CROOKSTON      CLEAR     64  63  94 W9        29.77R
$$
  *****  WEATHER ACROSS CENTRAL AND WEST MINNESOTA  *****

CITY           SKY/WX    TMP DP  RH WIND       PRES   REMARKS
BEMIDJI        CLEAR     68  66  94 W7        29.75S
PARK RAPIDS    CLEAR     66  63  90 W5        29.78R
WADENA         CLEAR     68  68 100 W6        29.79R
DETROIT LAKES  CLEAR     70  68  94 W10G16    29.81R
MOORHEAD       CLEAR     66  63  88 W9        29.81R
FERGUS FALLS   CLEAR     70  70 100 W8        29.82S
ELBOW LAKE     FAIR      68  68  99 NW9       29.82R
MORRIS MN      CLEAR     70  68  94 NW8       29.81S
STAPLES        CLEAR     68  66  94 W5        29.78S
WHEATON        CLEAR     70  70 100 W8        29.84S
$$
  *****  WEATHER ELSEWHERE ACROSS MINNESOTA  *****

CITY           SKY/WX    TMP DP  RH WIND       PRES   REMARKS
DULUTH         CLOUDY    66  66 100 S20       29.75F
INTRNTL FALLS  CLOUDY    69  65  86 SW8       29.71R
ELY            TSTM      64  63  94 W8        29.78R
CLOQUET        CLOUDY    64  63  94 E5        29.74F FOG
BRAINERD       CLOUDY    66  66 100 SW7       29.77S
HIBBING        LGT RAIN  64  64 100 CALM      29.76S
ALEXANDRIA     CLEAR     71  68  90 W8        29.82R
SAINT CLOUD    CLOUDY    72  72 100 W3        29.77R
MINNEAPOLIS    CLOUDY    76  73  91 CALM      29.76S THUNDER
$$

  *****  WEATHER ACROSS SOUTH DAKOTA  *****

CITY           SKY/WX    TMP DP  RH WIND       PRES   REMARKS
SIOUX FALLS    CLEAR     72  67  84 N7        29.89R
BROOKINGS      PTCLDY    69  67  93 NW3       29.90R
WATERTOWN      CLEAR     71  67  87 NW6       29.90R
HURON          CLEAR     65  62  90 W8        29.91R
SISSETON         N/A     69  61  75 NW9       29.84R
ABERDEEN       CLEAR     67  58  72 NW9       29.92R
MITCHELL       CLEAR     68  65  90 W6        29.92R
PIERRE         CLEAR     63  58  83 NW10      29.98R
MOBRIDGE       CLEAR     64  56  75 NW5       29.96R
RAPID CITY     CLEAR     61  43  51 NW10      30.11R
$$

  *****  SOME WEATHER IN NEARBY STATES *****

CITY           SKY/WX    TMP DP  RH WIND       PRES   REMARKS
GLASGOW MT     CLEAR     59  51  75 S3        30.03R
GREAT FALLS MT CLEAR     53  38  56 SW6       30.11F
CHEYENNE WY    CLOUDY    69  49  48 W12       30.25R
SCOTTSBLUFF NE CLEAR     65  56  72 E7        30.07S
OMAHA NE       CLEAR     80  74  81 S7        29.83S
DES MOINES IA  MOCLDY    81  76  84 S6        29.82F
DAVENPORT IA   CLEAR     79  75  87 S10       29.88F
CHICAGO IL     CLOUDY    71  70  96 S10       29.92F
EAU CLAIRE WI  CLOUDY    70  69  97 S3        29.78F
LA CROSSE WI   PTCLDY    75  72  90 S8        29.79F
$$

  *****  SOME NATIONAL WEATHER *****

CITY           SKY/WX    TMP DP  RH WIND       PRES   REMARKS
LA GUARDIA NY  CLEAR     79  61  53 NE7       29.93R
RALEIGH NC     PTCLDY    75  73  93 SW5       30.00F
ATLANTA GA     CLOUDY    78  72  81 E3        30.03F
NEW ORLEANS LA MOCLDY    83  77  82 SW5       29.94F HX  92
OKLAHOMA CITY  PTCLDY    75  70  84 SE8       29.92S
ALBUQUERQUE NM CLOUDY    81  49  32 VRB5      30.14F
SALT LAKE CITY CLEAR     70  46  42 N3        30.05R
LOS ANGELES CA PTCLDY    70  64  81 CALM      29.81F
BOISE ID       CLEAR     65  34  31 S5        30.05S
SEATTLE WA     CLEAR     62  53  72 NE14      30.19F
$$

*** WEATHER ACROSS MANITOBA...SASKATCHEWAN AND ONTARIO ***
                ***ONTARIO***

CITY           SKY/WX    TMP DP  RH WIND       PRES   REMARKS
GERALDTON      CLOUDY    66  55  68 SE6       29.85F
THUNDER BAY    CLOUDY    64  59  82 E5        29.78F
SIOUX LOOKOUT  TSTM      64  63  94 S10       29.73R
TORONTO        MOCLDY    70  59  68 N6        30.00R
BIG TROUT LK   CLOUDY    63  61  94 SE7       29.71F
PICKLE LAKE    NOT AVBL
DRYDEN         MOCLDY    66  64  94 SE14G26   29.68R
KENORA         MOCLDY    66  66 100 SW7       29.67F
$$
                *** MANITOBA***

CITY           SKY/WX    TMP DP  RH WIND       PRES   REMARKS
BRANDON        CLEAR     57  57 100 W12       29.79R
DAUPHIN        CLEAR     61  57  88 W14G21    29.72R
ISLAND LAKE    LGT RAIN  63  61  94 NE7       29.60F
PILOT MOUND      N/A     59  57  94 NW8         N/A
THE PAS        PTCLDY    63  59  88 N10G18    29.69R
THOMPSON       LGT RAIN  61  59  94 NE3       29.70S FOG
WINNIPEG       CLEAR     63  61  94 W9        29.69R
LYNN LAKE      CLEAR     57  55  94 MISG      29.74S
CHURCHILL      MOCLDY    54  52  94 N10       29.75S
GILLAM         LGT RAIN  59  59 100 E3        29.72S
$$
                ***SASKATCHEWAN***

CITY           SKY/WX    TMP DP  RH WIND       PRES   REMARKS
ESTEVAN        PTCLDY    59  55  88 W9        29.93R
KINDERSLEY     PTCLDY    54  54 100 SW7       29.99R
LLOYDMINSTER   CLEAR     50  48  93 W8        29.95S
PRINCE ALBERT  NOT AVBL
REGINA         CLEAR     57  55  94 W10       29.93S
YORKTON        CLEAR     61  59  94 W12       29.80R   C1F1C2F2C3F3C4F4C5F5C6F6C7F7C8F8C9F9CaFaCbFbCcFcCdFdCe!



USA.gov is the U.S. government's official web portal to all federal, state and local government web resources and services.